period_start,C,m1,H,J0,J1,J2,J3,J4,J5,JA,JB,JC,JD,JJ,JK,JN,#
2016-08-06 00:01:44,0.02,0.09,0.00,25.63,29.32,31.96,14.17,46.22,1010.01,2030.17,3435.03,3047.46,3465.61,599.74,586.70,25.40,0000 0000 0000 0000 000000
2016-08-06 00:06:46,0.00,0.09,0.00,25.65,29.32,31.97,14.25,46.33,1009.82,2030.09,3435.00,3047.17,3465.23,599.63,586.51,25.45,0000 0000 0000 0000 000000
2016-08-06 00:11:47,0.00,0.09,0.00,25.66,29.32,31.96,14.27,46.27,1009.79,2030.07,3434.96,3047.05,3465.04,599.85,586.50,25.50,0000 0000 0000 0000 000000
2016-08-06 00:16:48,0.01,0.09,0.00,25.68,29.34,31.98,14.25,46.23,1009.79,2030.06,3434.62,3047.01,3465.00,600.18,586.90,25.55,0000 0000 0000 0000 000000
2016-08-06 00:21:49,0.00,0.09,0.00,25.70,29.35,31.99,14.32,46.26,1009.78,2030.04,3434.12,3047.00,3465.00,600.20,586.88,25.60,0000 0000 0000 0000 000000
2016-08-06 00:26:50,0.00,0.09,0.00,25.71,29.35,32.00,14.17,46.20,1009.78,2030.01,3434.02,3046.99,3464.97,599.74,586.44,25.65,0000 0000 0000 0000 000000
2016-08-06 00:31:52,0.00,0.10,0.00,25.72,29.37,32.05,14.22,46.23,1009.77,2030.01,3434.00,3046.97,3464.84,599.61,586.27,25.70,0000 0000 0000 0000 000000
2016-08-06 00:36:53,0.02,0.10,0.00,25.73,29.37,32.04,14.19,46.39,1009.75,2030.00,3433.84,3046.86,3464.20,599.76,586.41,25.75,0000 0000 0000 0000 000000
2016-08-06 00:41:54,0.02,0.10,0.00,25.75,29.40,32.06,14.26,46.37,1009.60,2030.00,3433.17,3046.39,3464.02,600.25,586.73,25.80,0000 0000 0000 0000 000000
2016-08-06 00:46:55,-0.00,0.10,0.00,25.77,29.40,32.05,14.21,46.27,1009.37,2030.00,3433.00,3046.10,3464.00,600.16,586.52,25.85,0000 0000 0000 0000 000000
2016-08-06 00:51:57,0.00,0.10,0.00,25.77,29.41,32.09,14.20,46.23,1009.31,2030.00,3432.97,3046.03,3463.98,599.81,586.23,25.90,0000 0000 0000 0000 000000
2016-08-06 00:56:58,0.01,0.10,0.00,25.78,29.42,32.16,14.28,46.35,1009.29,2030.00,3432.57,3046.00,3463.72,600.14,586.37,25.95,0000 0000 0000 0000 000000
2016-08-06 01:01:59,0.01,0.10,0.00,25.80,29.43,32.16,14.23,46.33,1009.29,2029.99,3432.06,3045.99,3463.15,599.94,586.07,26.00,0000 0000 0000 0000 000000
2016-08-06 01:07:00,0.00,0.10,0.00,25.80,29.45,32.18,14.27,46.33,1009.29,2029.98,3431.93,3045.87,3463.01,599.99,586.26,26.05,0000 0000 0000 0000 000000
2016-08-06 01:12:02,0.02,0.10,0.00,25.82,29.45,32.17,14.25,46.45,1009.29,2029.98,3431.32,3045.54,3462.99,600.13,586.20,26.10,0000 0000 0000 0000 000000
2016-08-06 01:17:03,0.02,0.10,0.00,25.85,29.47,32.19,14.18,46.33,1009.28,2029.98,3431.00,3045.04,3462.63,600.12,586.17,26.15,0000 0000 0000 0000 000000
2016-08-06 01:22:05,0.00,0.10,0.00,25.86,29.47,32.19,14.20,46.34,1009.06,2029.90,3430.83,3045.00,3462.08,600.20,586.12,26.20,0000 0000 0000 0000 000000
2016-08-06 01:27:06,0.01,0.10,0.00,25.88,29.50,32.20,14.26,46.38,1008.92,2029.88,3430.22,3044.99,3462.00,600.19,586.18,26.25,0000 0000 0000 0000 000000
2016-08-06 01:32:07,-0.00,0.10,0.00,25.90,29.50,32.22,14.23,46.37,1008.82,2029.75,3429.99,3044.92,3461.95,599.82,585.50,26.30,0000 0000 0000 0000 000000
2016-08-06 01:37:08,-0.02,0.10,0.00,25.91,29.51,32.25,14.23,46.29,1008.81,2029.27,3429.72,3044.41,3461.28,599.95,585.79,26.35,0000 0000 0000 0000 000000
2016-08-06 01:42:10,0.00,0.10,0.00,25.93,29.52,32.23,14.26,46.43,1008.80,2029.11,3429.12,3044.06,3461.02,599.97,585.63,26.40,0000 0000 0000 0000 000000
2016-08-06 01:47:11,0.00,0.10,0.00,25.93,29.54,32.20,14.15,46.24,1008.80,2029.10,3429.00,3044.01,3461.00,600.15,585.88,26.45,0000 0000 0000 0000 000000
2016-08-06 01:52:13,0.01,0.10,0.00,25.94,29.55,32.21,14.26,46.22,1008.80,2029.08,3428.73,3044.00,3460.89,600.19,585.84,26.50,0000 0000 0000 0000 000000
2016-08-06 01:57:14,0.01,0.10,0.00,25.95,29.56,32.27,14.16,46.31,1008.76,2029.04,3428.18,3043.99,3460.31,600.00,585.59,26.55,0000 0000 0000 0000 000000
2016-08-06 02:02:15,0.00,0.10,0.00,25.98,29.57,32.27,14.27,46.27,1008.59,2029.02,3428.01,3043.92,3460.02,600.15,585.66,26.60,0000 0000 0000 0000 000000
2016-08-06 02:07:17,0.01,0.10,0.00,25.99,29.59,32.27,14.20,46.24,1008.53,2029.01,3427.92,3043.41,3460.00,599.96,585.33,26.65,0000 0000 0000 0000 000000
2016-08-06 02:12:18,0.02,0.10,0.00,26.01,29.60,32.29,14.15,46.35,1008.35,2029.00,3427.22,3043.05,3459.91,600.08,585.32,26.70,0000 0000 0000 0000 000000
2016-08-06 02:17:19,0.01,0.11,0.00,26.02,29.61,32.31,14.20,46.27,1008.33,2029.00,3427.00,3043.01,3459.34,600.04,585.28,26.75,0000 0000 0000 0000 000000
2016-08-06 02:22:21,0.00,0.11,0.00,26.04,29.62,32.34,14.19,46.40,1008.32,2029.00,3426.94,3043.00,3459.03,599.89,585.06,26.80,0000 0000 0000 0000 000000
2016-08-06 02:27:22,0.01,0.11,0.00,26.06,29.65,32.33,14.13,46.48,1008.32,2028.99,3426.40,3042.97,3458.99,599.87,584.95,26.85,0000 0000 0000 0000 000000
2016-08-06 02:32:24,0.02,0.11,0.00,26.09,29.66,32.37,14.17,46.34,1008.32,2028.99,3426.01,3042.72,3458.81,599.86,584.99,26.90,0000 0000 0000 0000 000000
2016-08-06 02:37:25,0.03,0.11,0.00,26.10,29.67,32.35,14.23,46.34,1008.32,2028.98,3425.71,3042.12,3458.12,600.00,585.12,26.95,0000 0000 0000 0000 000000
2016-08-06 02:42:26,0.00,0.11,0.00,26.12,29.69,32.35,14.25,46.35,1008.25,2028.92,3425.16,3042.00,3458.00,600.27,585.18,27.00,0000 0000 0000 0000 000000
2016-08-06 02:47:28,-0.01,0.11,0.00,26.13,29.71,32.39,14.28,46.61,1008.13,2028.79,3425.00,3041.98,3457.90,600.08,584.86,27.05,0000 0000 0000 0000 000000
2016-08-06 02:52:29,-0.03,0.11,0.00,26.16,29.72,32.34,14.20,46.48,1008.10,2028.34,3424.92,3041.92,3457.26,600.00,584.82,27.10,0000 0000 0000 0000 000000
2016-08-06 02:57:30,0.02,0.11,0.00,26.18,29.75,32.37,14.18,46.42,1007.99,2028.24,3424.32,3041.73,3457.01,600.13,584.85,27.15,0000 0000 0000 0000 000000
2016-08-06 03:02:31,0.00,0.11,0.00,26.19,29.76,32.40,14.18,46.39,1007.87,2028.12,3424.04,3041.22,3456.98,600.11,584.68,27.20,0000 0000 0000 0000 000000
2016-08-06 03:07:32,0.00,0.11,0.00,26.20,29.77,32.42,14.16,46.47,1007.84,2028.03,3423.98,3041.01,3456.75,599.97,584.49,27.25,0000 0000 0000 0000 000000
2016-08-06 03:12:34,0.01,0.11,0.00,26.23,29.79,32.39,14.22,46.38,1007.84,2028.01,3423.78,3041.00,3456.27,600.13,584.69,27.30,0000 0000 0000 0000 000000
2016-08-06 03:17:35,0.01,0.11,0.00,26.25,29.80,32.46,14.14,46.27,1007.83,2028.00,3423.05,3040.99,3456.00,599.81,584.32,27.35,0000 0000 0000 0000 000000
2016-08-06 03:22:36,0.01,0.11,0.00,26.27,29.82,32.45,14.18,46.24,1007.83,2028.00,3422.97,3040.87,3455.99,599.82,584.25,27.40,0000 0000 0000 0000 000000
2016-08-06 03:27:37,0.03,0.11,0.00,26.29,29.85,32.47,14.20,46.34,1007.83,2027.99,3422.45,3040.26,3455.67,600.03,584.39,27.45,0000 0000 0000 0000 000000
2016-08-06 03:32:39,0.01,0.11,0.00,26.30,29.86,32.50,14.18,46.33,1007.82,2027.98,3422.02,3040.02,3455.12,599.85,584.22,27.50,0000 0000 0000 0000 000000
2016-08-06 03:37:40,-0.01,0.11,0.00,26.31,29.88,32.48,14.24,46.37,1007.70,2027.90,3421.98,3040.00,3454.99,600.27,584.56,27.55,0000 0000 0000 0000 000000
2016-08-06 03:42:41,0.01,0.11,0.00,26.34,29.90,32.49,14.11,46.40,1007.59,2027.79,3421.58,3039.99,3454.92,599.92,584.19,27.60,0000 0000 0000 0000 000000
2016-08-06 03:47:42,-0.02,0.11,0.00,26.34,29.92,32.53,14.15,46.33,1007.44,2027.53,3421.07,3039.96,3454.39,599.89,583.94,27.65,0000 0000 0000 0000 000000
2016-08-06 03:52:43,-0.01,0.11,0.00,26.35,29.94,32.56,14.17,46.38,1007.45,2027.10,3420.96,3039.33,3454.01,600.01,584.06,27.70,0000 0000 0000 0000 000000
2016-08-06 03:57:45,0.01,0.11,0.00,26.36,29.95,32.55,14.20,46.27,1007.43,2027.03,3420.37,3039.03,3453.97,600.18,584.29,27.75,0000 0000 0000 0000 000000
2016-08-06 04:02:46,0.01,0.11,0.00,26.38,29.97,32.55,14.17,46.18,1007.40,2027.01,3420.02,3038.99,3453.48,600.12,584.10,27.80,0000 0000 0000 0000 000000
2016-08-06 04:07:47,0.00,0.11,0.00,26.40,30.00,32.58,14.12,46.24,1007.36,2027.01,3419.78,3038.95,3453.02,600.00,583.92,27.85,0000 0000 0000 0000 000000
2016-08-06 04:12:48,0.02,0.11,0.00,26.41,30.01,32.60,14.13,46.26,1007.34,2027.00,3419.15,3038.46,3452.99,600.17,584.11,27.90,0000 0000 0000 0000 000000
2016-08-06 04:17:50,0.01,0.11,0.00,26.43,30.03,32.60,14.14,46.48,1007.34,2026.99,3419.00,3038.03,3452.46,600.17,583.95,27.95,0000 0000 0000 0000 000000
2016-08-06 04:22:51,0.01,0.11,0.00,26.44,30.05,32.61,14.21,46.45,1007.34,2026.99,3418.60,3037.99,3452.00,600.02,583.83,28.00,0000 0000 0000 0000 000000
2016-08-06 04:27:52,0.00,0.12,0.00,26.46,30.07,32.61,14.15,46.52,1007.33,2026.96,3418.06,3037.88,3451.90,599.84,583.65,28.05,0000 0000 0000 0000 000000
2016-08-06 04:32:54,0.03,0.12,0.00,26.45,30.08,32.61,14.21,46.43,1007.24,2026.93,3417.95,3037.24,3451.18,600.08,583.82,28.10,0000 0000 0000 0000 000000
2016-08-06 04:37:55,-0.00,0.12,0.00,26.46,30.10,32.65,14.17,46.38,1006.98,2026.79,3417.40,3037.02,3451.00,600.08,583.67,28.15,0000 0000 0000 0000 000000
2016-08-06 04:42:57,-0.01,0.12,0.00,26.48,30.12,32.67,14.18,46.27,1006.88,2026.50,3417.01,3037.00,3450.89,600.14,583.53,28.20,0000 0000 0000 0000 000000
2016-08-06 04:47:58,0.01,0.12,0.00,26.48,30.13,32.67,14.17,46.21,1006.85,2026.44,3416.91,3036.99,3450.35,600.09,583.56,28.25,0000 0000 0000 0000 000000
2016-08-06 04:52:59,-0.01,0.12,0.00,26.49,30.15,32.70,14.16,46.29,1006.85,2026.16,3416.26,3036.76,3450.02,599.71,583.15,28.30,0000 0000 0000 0000 000000
2016-08-06 04:58:01,0.01,0.12,0.00,26.50,30.16,32.72,14.12,46.22,1006.85,2026.07,3416.00,3036.11,3449.98,600.07,583.41,28.35,0000 0000 0000 0000 000000
2016-08-06 05:03:02,0.01,0.12,0.00,26.53,30.17,32.75,14.11,46.17,1006.85,2026.00,3415.90,3036.01,3449.45,600.05,583.41,28.40,0000 0000 0000 0000 000000
2016-08-06 05:08:04,0.01,0.12,0.00,26.55,30.20,32.72,14.19,46.20,1006.85,2026.00,3415.22,3036.00,3449.03,600.27,583.58,28.45,0000 0000 0000 0000 000000
2016-08-06 05:13:05,0.00,0.12,0.00,26.54,30.20,32.76,14.14,46.16,1006.84,2026.00,3415.02,3035.99,3449.00,599.94,583.38,28.50,0000 0000 0000 0000 000000
2016-08-06 05:18:06,0.01,0.12,0.00,26.56,30.22,32.77,14.16,46.13,1006.82,2026.00,3414.88,3035.88,3448.89,599.97,583.22,28.55,0000 0000 0000 0000 000000
2016-08-06 05:23:07,0.03,0.12,0.00,26.57,30.23,32.80,14.15,46.24,1006.84,2026.00,3414.38,3035.44,3448.38,600.09,583.33,28.60,0000 0000 0000 0000 000000
2016-08-06 05:28:08,0.01,0.12,0.00,26.57,30.25,32.80,14.15,46.19,1006.84,2025.99,3414.02,3035.03,3448.02,599.93,583.21,28.65,0000 0000 0000 0000 000000
2016-08-06 05:33:10,0.00,0.12,0.00,26.59,30.26,32.85,14.16,46.19,1006.83,2025.98,3413.87,3035.00,3447.92,599.80,583.01,28.70,0000 0000 0000 0000 000000
2016-08-06 05:38:11,0.03,0.12,0.00,26.62,30.27,32.84,14.16,46.22,1006.80,2025.97,3413.08,3034.86,3447.16,600.14,583.30,28.75,0000 0000 0000 0000 000000
2016-08-06 05:43:12,0.01,0.12,0.00,26.63,30.29,32.82,14.10,46.27,1006.59,2025.92,3412.98,3034.20,3446.98,600.29,583.26,28.80,0000 0000 0000 0000 000000
2016-08-06 05:48:13,0.01,0.12,0.00,26.66,30.30,32.84,14.19,46.39,1006.46,2025.77,3412.43,3034.00,3446.44,600.36,583.24,28.85,0000 0000 0000 0000 000000
2016-08-06 05:53:14,-0.03,0.12,0.00,26.68,30.32,32.85,14.10,46.55,1006.40,2025.39,3412.00,3033.93,3446.01,599.87,582.76,28.90,0000 0000 0000 0000 000000
2016-08-06 05:58:16,0.02,0.12,0.00,26.70,30.33,32.86,14.14,46.68,1006.37,2025.12,3411.49,3033.23,3445.50,599.89,582.66,28.96,0000 0000 0000 0000 000000
2016-08-06 06:03:17,0.01,0.12,0.00,26.73,30.35,32.86,14.08,46.52,1006.37,2025.09,3410.84,3032.92,3444.84,600.04,582.64,29.01,0000 0000 0000 0000 000000
2016-08-06 06:08:18,0.03,0.13,0.00,26.74,30.37,32.87,14.17,46.59,1006.36,2025.04,3410.05,3032.11,3444.03,600.31,582.93,29.06,0000 0000 0000 0000 000000
2016-08-06 06:13:20,0.02,0.13,0.00,26.75,30.39,32.91,14.09,46.55,1006.36,2025.00,3409.58,3031.98,3443.36,600.00,582.77,29.11,0000 0000 0000 0000 000000
2016-08-06 06:18:21,0.02,0.13,0.00,26.78,30.40,32.90,14.14,46.60,1006.35,2025.00,3409.01,3031.37,3442.98,600.08,582.65,29.16,0000 0000 0000 0000 000000
2016-08-06 06:23:23,0.02,0.13,0.00,26.77,30.42,32.96,14.11,46.61,1006.35,2025.00,3408.51,3030.99,3442.32,600.09,582.62,29.21,0000 0000 0000 0000 000000
2016-08-06 06:28:24,0.04,0.13,0.00,26.79,30.43,32.95,14.07,46.52,1006.33,2025.00,3407.67,3030.29,3441.46,599.76,582.36,29.26,0000 0000 0000 0000 000000
2016-08-06 06:33:25,0.01,0.13,0.00,26.79,30.45,32.98,14.04,46.48,1006.27,2024.98,3407.04,3030.00,3440.96,599.62,582.27,29.31,0000 0000 0000 0000 000000
2016-08-06 06:38:26,0.04,0.13,0.00,26.80,30.47,33.00,14.12,46.57,1006.17,2024.98,3406.49,3029.48,3440.16,599.85,582.29,29.36,0000 0000 0000 0000 000000
2016-08-06 06:43:27,0.01,0.14,0.00,26.82,30.47,33.01,14.17,46.73,1006.19,2024.94,3406.00,3029.00,3439.82,600.24,582.65,29.41,0000 0000 0000 0000 000000
2016-08-06 06:48:29,0.03,0.14,0.00,26.82,30.50,33.05,14.09,46.53,1006.15,2024.89,3405.33,3028.70,3439.05,599.83,582.23,29.46,0000 0000 0000 0000 000000
2016-08-06 06:53:30,0.02,0.14,0.00,26.84,30.50,33.06,14.13,46.63,1006.21,2024.80,3404.95,3028.08,3438.53,600.10,582.48,29.51,0000 0000 0000 0000 000000
2016-08-06 06:58:31,-0.00,0.14,0.00,26.84,30.52,33.05,14.09,46.37,1006.30,2024.63,3404.16,3027.98,3437.98,599.99,582.34,29.56,0000 0000 0000 0000 000000
2016-08-06 07:03:33,0.03,0.14,0.00,26.85,30.53,33.08,14.16,46.35,1006.27,2024.57,3403.80,3027.34,3437.26,599.96,582.35,29.61,0000 0000 0000 0000 000000
2016-08-06 07:08:34,-0.01,0.14,0.00,26.85,30.55,33.08,14.09,46.25,1006.10,2024.28,3403.03,3026.98,3436.62,599.80,582.01,29.66,0000 0000 0000 0000 000000
2016-08-06 07:13:35,0.03,0.14,0.00,26.88,30.56,33.10,14.08,46.27,1005.93,2024.07,3402.37,3026.34,3435.97,599.53,581.64,29.71,0000 0000 0000 0000 000000
2016-08-06 07:18:36,0.02,0.14,0.00,26.90,30.57,33.11,14.17,46.38,1005.91,2024.04,3401.79,3025.97,3435.21,600.59,582.62,29.76,0000 0000 0000 0000 000000
2016-08-06 07:23:38,0.04,0.15,0.00,26.92,30.58,33.14,14.08,46.31,1005.89,2024.01,3400.95,3025.21,3434.36,599.79,581.82,29.81,0000 0000 0000 0000 000000
2016-08-06 07:28:39,0.03,0.15,0.00,26.92,30.60,33.14,14.10,46.44,1005.88,2024.00,3400.13,3024.80,3433.59,599.92,581.92,29.86,0000 0000 0000 0000 000000
2016-08-06 07:33:40,0.03,0.15,0.00,26.94,30.61,33.13,14.10,46.33,1005.87,2024.00,3399.53,3024.08,3432.91,599.56,581.59,29.91,0000 0000 0000 0000 000000
2016-08-06 07:38:42,0.02,0.15,0.00,26.97,30.62,33.16,14.12,46.45,1005.87,2024.00,3398.98,3023.85,3432.13,600.19,582.20,29.96,0000 0000 0000 0000 000000
2016-08-06 07:43:43,0.04,0.15,0.00,26.98,30.64,33.17,14.13,46.39,1005.87,2024.00,3398.21,3023.09,3431.54,599.81,581.68,30.01,0000 0000 0000 0000 000000
2016-08-06 07:48:44,0.02,0.15,0.00,27.01,30.65,33.18,14.15,46.41,1005.85,2024.00,3397.57,3022.83,3430.91,600.10,581.85,30.06,0000 0000 0000 0000 000000
2016-08-06 07:53:46,0.03,0.16,0.00,27.02,30.67,33.19,14.09,46.51,1005.84,2023.99,3397.08,3022.18,3430.21,599.76,581.58,30.11,0000 0000 0000 0000 000000
2016-08-06 07:58:47,0.00,0.16,0.00,27.04,30.68,33.21,14.10,46.78,1005.86,2023.98,3396.96,3022.00,3429.99,599.83,581.61,30.16,0000 0000 0000 0000 000000
2016-08-06 08:03:49,0.03,0.16,0.00,27.07,30.70,33.22,14.16,46.54,1005.87,2023.97,3396.20,3021.88,3429.33,599.95,581.73,30.21,0000 0000 0000 0000 000000
2016-08-06 08:08:50,0.01,0.16,0.00,27.07,30.71,33.21,14.07,46.79,1005.86,2023.85,3395.95,3021.20,3428.98,599.69,581.47,30.26,0000 0000 0000 0000 000000
2016-08-06 08:13:51,-0.01,0.16,0.00,27.08,30.72,33.25,14.13,46.58,1005.76,2023.57,3395.33,3021.00,3428.35,599.72,581.28,30.31,0000 0000 0000 0000 000000
2016-08-06 08:18:52,0.02,0.16,0.00,27.09,30.74,33.27,14.10,46.38,1005.63,2023.60,3395.00,3020.96,3428.01,600.03,581.65,30.36,0000 0000 0000 0000 000000
2016-08-06 08:23:54,-0.02,0.16,0.00,27.09,30.75,33.29,14.06,46.39,1005.66,2023.37,3394.82,3020.54,3427.98,599.84,581.46,30.41,0000 0000 0000 0000 000000
2016-08-06 08:28:55,0.02,0.16,0.00,27.09,30.77,33.34,14.16,46.27,1005.75,2023.31,3394.19,3020.11,3427.49,600.26,581.83,30.46,0000 0000 0000 0000 000000
2016-08-06 08:33:56,0.02,0.16,0.00,27.11,30.77,33.32,14.07,46.11,1005.67,2023.33,3393.87,3020.00,3427.00,599.89,581.33,30.51,0000 0000 0000 0000 000000
2016-08-06 08:38:58,0.03,0.16,0.00,27.14,30.80,33.30,14.12,46.23,1005.52,2023.14,3393.08,3019.45,3426.26,600.25,581.65,30.56,0000 0000 0000 0000 000000
2016-08-06 08:43:59,0.02,0.16,0.00,27.15,30.80,33.34,14.06,46.13,1005.43,2023.04,3392.51,3018.97,3425.54,599.62,581.02,30.61,0000 0000 0000 0000 000000
2016-08-06 08:49:00,0.04,0.17,0.00,27.16,30.82,33.32,14.14,46.06,1005.42,2023.04,3391.78,3018.16,3424.72,599.94,581.24,30.66,0000 0000 0000 0000 000000
2016-08-06 08:54:01,0.03,0.17,0.00,27.18,30.82,33.32,14.19,46.13,1005.41,2023.02,3391.04,3017.73,3423.96,600.22,581.51,30.71,0000 0000 0000 0000 000000
2016-08-06 08:59:03,0.03,0.17,0.00,27.18,30.85,33.35,14.11,46.17,1005.41,2023.00,3390.64,3017.03,3423.11,599.84,581.06,30.76,0000 0000 0000 0000 000000
2016-08-06 09:04:04,0.04,0.17,0.00,27.20,30.85,33.35,14.04,46.23,1005.42,2023.00,3389.99,3016.56,3422.27,599.79,581.04,30.81,0000 0000 0000 0000 000000
2016-08-06 09:09:05,0.02,0.17,0.00,27.22,30.87,33.37,14.08,46.03,1005.40,2023.00,3389.29,3016.02,3421.77,599.87,581.08,30.86,0000 0000 0000 0000 000000
2016-08-06 09:14:07,0.03,0.17,0.00,27.21,30.88,33.39,14.09,46.11,1005.40,2022.98,3388.76,3015.64,3421.02,600.32,581.54,30.91,0000 0000 0000 0000 000000
2016-08-06 09:19:08,0.02,0.18,0.00,27.22,30.90,33.42,14.09,46.08,1005.40,2022.95,3388.03,3015.01,3420.30,599.77,580.95,30.96,0000 0000 0000 0000 000000
2016-08-06 09:24:09,0.04,0.18,0.00,27.25,30.90,33.46,14.01,45.98,1005.40,2022.95,3387.46,3014.55,3419.74,599.76,580.98,31.01,0000 0000 0000 0000 000000
2016-08-06 09:29:11,0.01,0.18,0.00,27.24,30.92,33.46,14.06,46.23,1005.39,2022.93,3386.97,3014.01,3419.03,600.20,581.18,31.06,0000 0000 0000 0000 000000
2016-08-06 09:34:12,0.04,0.18,0.00,27.25,30.92,33.45,14.11,46.12,1005.39,2022.92,3386.20,3013.66,3418.30,600.05,581.18,31.11,0000 0000 0000 0000 000000
2016-08-06 09:39:13,-0.00,0.18,0.00,27.25,30.95,33.47,14.14,46.23,1005.39,2022.70,3385.94,3013.02,3417.91,600.22,581.32,31.16,0000 0000 0000 0000 000000
2016-08-06 09:44:15,0.00,0.18,0.00,27.26,30.95,33.50,14.14,46.23,1005.40,2022.41,3385.13,3012.91,3417.13,600.15,581.31,31.21,0000 0000 0000 0000 000000
2016-08-06 09:49:16,0.03,0.18,0.00,27.25,30.97,33.53,14.11,46.25,1005.40,2022.28,3384.67,3012.15,3416.54,600.18,581.26,31.26,0000 0000 0000 0000 000000
2016-08-06 09:54:17,0.01,0.18,0.00,27.26,30.97,33.53,14.14,46.23,1005.44,2022.16,3384.03,3011.94,3415.99,599.74,580.98,31.31,0000 0000 0000 0000 000000
2016-08-06 09:59:19,0.03,0.18,0.00,27.26,30.99,33.59,14.14,46.26,1005.45,2022.04,3383.48,3011.20,3415.31,600.05,581.17,31.36,0000 0000 0000 0000 000000
2016-08-06 10:04:20,0.01,0.18,0.00,27.27,31.00,33.59,14.10,46.20,1005.56,2022.06,3383.00,3011.00,3414.98,599.98,581.29,31.41,0000 0000 0000 0000 000000
2016-08-06 10:09:21,0.04,0.19,0.00,27.27,31.00,33.60,14.16,46.52,1005.80,2022.02,3382.45,3010.68,3414.29,600.18,581.21,31.46,0000 0000 0000 0000 000000
2016-08-06 10:14:23,0.01,0.19,0.00,27.26,31.02,33.66,14.07,46.20,1005.87,2022.01,3381.99,3010.05,3413.99,599.83,581.16,31.51,0000 0000 0000 0000 000000
2016-08-06 10:19:25,0.00,0.19,0.00,27.24,31.02,33.64,14.10,46.31,1005.87,2022.03,3381.99,3010.00,3413.94,599.80,581.21,31.56,0000 0000 0000 0000 000000
2016-08-06 10:24:26,0.02,0.19,0.00,27.24,31.02,33.65,14.17,46.33,1005.95,2022.00,3381.55,3010.00,3413.35,599.95,581.50,31.61,0000 0000 0000 0000 000000
2016-08-06 10:29:27,0.01,0.19,0.00,27.26,31.02,33.66,14.11,46.13,1006.23,2022.01,3380.80,3009.96,3413.01,599.89,581.54,31.66,0000 0000 0000 0000 000000
2016-08-06 10:34:28,0.01,0.19,0.00,27.28,31.03,33.65,14.14,46.00,1006.36,2022.02,3380.08,3009.79,3412.93,600.10,581.68,31.71,0000 0000 0000 0000 000000
2016-08-06 10:39:29,0.02,0.19,0.00,27.31,31.04,33.63,14.07,45.98,1006.36,2022.04,3380.00,3009.35,3412.49,599.86,581.48,31.76,0000 0000 0000 0000 000000
2016-08-06 10:44:31,0.01,0.19,0.00,27.33,31.05,33.59,14.06,45.94,1006.38,2022.06,3379.79,3009.06,3412.02,599.59,581.14,31.81,0000 0000 0000 0000 000000
2016-08-06 10:49:32,0.02,0.19,0.00,27.35,31.05,33.57,14.13,46.02,1006.55,2022.10,3379.03,3009.00,3411.76,599.89,581.46,31.86,0000 0000 0000 0000 000000
2016-08-06 10:54:32,0.03,0.19,0.00,27.37,31.05,33.55,14.10,46.02,1006.84,2022.24,3378.69,3008.97,3411.14,600.34,582.07,31.91,0000 0000 0000 0000 000000
2016-08-06 10:59:34,0.01,0.20,0.00,27.38,31.07,33.55,14.07,45.95,1006.82,2022.14,3378.15,3008.68,3411.00,599.81,581.51,31.96,0000 0000 0000 0000 000000
2016-08-06 11:04:35,0.02,0.20,0.00,27.39,31.07,33.60,14.01,45.91,1006.58,2022.16,3378.00,3008.21,3410.98,599.68,581.20,32.01,0000 0000 0000 0000 000000
2016-08-06 11:09:37,-0.00,0.20,0.00,27.41,31.07,33.57,14.11,45.83,1006.64,2022.11,3377.92,3008.03,3410.81,600.27,581.69,32.07,0000 0000 0000 0000 000000
2016-08-06 11:14:38,0.01,0.20,0.00,27.42,31.10,33.63,14.03,45.83,1006.83,2022.04,3377.28,3008.00,3410.14,599.77,581.42,32.12,0000 0000 0000 0000 000000
2016-08-06 11:19:39,0.00,0.20,0.00,27.43,31.10,33.61,14.10,45.88,1006.85,2022.02,3377.00,3008.00,3410.00,600.43,582.12,32.17,0000 0000 0000 0000 000000
2016-08-06 11:24:41,0.00,0.20,0.00,27.43,31.10,33.62,14.07,45.76,1006.85,2022.02,3376.92,3007.98,3409.95,599.97,581.60,32.22,0000 0000 0000 0000 000000
2016-08-06 11:29:42,0.03,0.20,0.00,27.43,31.12,33.64,14.05,45.82,1006.85,2022.00,3376.40,3007.81,3409.52,600.05,581.60,32.27,0000 0000 0000 0000 000000
2016-08-06 11:34:43,0.02,0.20,0.00,27.47,31.12,33.63,14.04,45.82,1006.80,2022.00,3376.01,3007.27,3409.05,599.34,580.89,32.32,0000 0000 0000 0000 000000
2016-08-06 11:39:45,0.00,0.20,0.00,27.48,31.14,33.63,14.10,45.75,1006.56,2022.00,3375.98,3007.07,3409.00,600.16,581.52,32.37,0000 0000 0000 0000 000000
2016-08-06 11:44:46,0.00,0.20,0.00,27.49,31.15,33.64,14.12,45.87,1006.49,2022.00,3375.73,3007.02,3408.99,600.41,581.65,32.42,0000 0000 0000 0000 000000
2016-08-06 11:49:47,0.01,0.20,0.00,27.49,31.15,33.62,14.04,45.88,1006.74,2022.00,3375.06,3007.00,3408.71,599.86,581.35,32.47,0000 0000 0000 0000 000000
2016-08-06 11:54:49,0.00,0.20,0.00,27.49,31.17,33.62,14.14,45.97,1006.85,2022.00,3374.99,3007.00,3408.15,599.97,581.53,32.52,0000 0000 0000 0000 000000
2016-08-06 11:59:50,0.00,0.20,0.00,27.52,31.17,33.65,13.98,45.73,1006.85,2022.00,3374.84,3006.97,3408.01,599.94,581.49,32.57,0000 0000 0000 0000 000000
2016-08-06 12:04:52,0.02,0.20,0.00,27.52,31.20,33.69,14.06,45.91,1006.78,2022.00,3374.11,3006.73,3408.00,599.96,581.27,32.62,0000 0000 0000 0000 000000
2016-08-06 12:09:53,0.02,0.20,0.00,27.53,31.20,33.71,14.06,45.73,1006.54,2022.00,3374.00,3006.31,3407.72,600.17,581.49,32.67,0000 0000 0000 0000 000000
2016-08-06 12:14:55,0.00,0.20,0.00,27.54,31.20,33.72,14.03,45.83,1006.46,2021.99,3373.99,3006.02,3407.14,599.69,580.95,32.72,0000 0000 0000 0000 000000
2016-08-06 12:19:56,0.00,0.20,0.00,27.54,31.22,33.73,14.12,45.93,1006.40,2021.97,3373.96,3006.00,3407.01,600.40,581.51,32.77,0000 0000 0000 0000 000000
2016-08-06 12:24:57,0.01,0.20,0.00,27.55,31.22,33.74,14.06,45.73,1006.37,2021.94,3373.52,3006.00,3407.00,599.75,580.87,32.82,0000 0000 0000 0000 000000
2016-08-06 12:29:59,0.00,0.21,0.00,27.55,31.24,33.79,14.07,45.95,1006.37,2021.91,3373.00,3005.94,3406.85,599.63,580.75,32.87,0000 0000 0000 0000 000000
2016-08-06 12:35:00,0.02,0.21,0.00,27.56,31.25,33.83,14.07,45.90,1006.36,2021.76,3372.47,3005.46,3406.13,599.94,580.98,32.92,0000 0000 0000 0000 000000
2016-08-06 12:40:01,0.02,0.21,0.00,27.55,31.25,33.79,14.01,45.88,1006.36,2021.76,3372.01,3005.06,3406.00,599.69,580.93,32.98,0000 0000 0000 0000 000000
2016-08-06 12:45:02,0.01,0.21,0.00,27.54,31.27,33.83,14.08,45.64,1006.37,2021.78,3371.97,3005.01,3405.98,599.94,581.09,33.03,0000 0000 0000 0000 000000
2016-08-06 12:50:03,-0.02,0.21,0.00,27.56,31.27,33.85,14.08,45.76,1006.37,2021.59,3371.63,3005.00,3405.63,599.78,580.88,33.08,0000 0000 0000 0000 000000
2016-08-06 12:55:04,0.01,0.21,0.00,27.54,31.27,33.83,14.11,45.75,1006.36,2021.44,3371.03,3004.97,3405.05,600.15,581.05,33.13,0000 0000 0000 0000 000000